[[{"header":{"parameterUnit":"m.s-1","parameterCategory":1,"la1":30.2991,"la2":30.254,"lo1":-89.0895,"lo2":-89.0444,"dy":0.0017,"dx":0.0017,"nx":28,"ny":28,"refTime":"2023-08-04T09:00:00:Z","depth":0,"parameterNumber":2,"parameterNumberName":"U-component_of_WINDS"},"data":[0,0,0,0,0,0,0,0,0,0,0,0,0,0,0,0,0,0,0,0,0,0,0,0,0,0,0,0,0,0,0,0,0,0,0,0,0,0,0,0,0,0,0,0,0,0,0,0,0,0,0,0,0,0,0,0,0,0,3.7557,3.7558,0,3.7643,3.7644,3.7645,3.7643,3.7642,3.7641,3.764,3.773,3.7734,3.7737,0,0,0,0,0,0,0,0,0,0,0,0,0,3.7395,3.7398,3.7557,3.7558,3.7559,3.7643,3.7644,3.7645,3.7643,3.7642,3.7641,3.7639,3.7729,3.7733,3.7737,0,0,0,0,0,0,0,0,0,0,0,0,0,3.7472,3.7399,3.7556,3.7568,3.757,3.7642,3.7644,3.7645,3.7644,3.7642,3.764,3.7639,3.7728,3.7733,3.7738,3.7805,0,0,3.7754,3.7756,0,0,0,0,0,0,0,0,3.7468,3.7478,3.7565,3.7567,3.757,3.763,3.762,3.7699,3.7644,3.7616,3.764,3.7638,3.7699,3.7706,3.7726,3.781,3.7813,3.7755,3.7758,3.776,3.7761,0,0,0,0,0,0,0,3.7462,3.7474,3.7591,3.7567,3.7569,3.757,3.7579,3.7635,3.7666,3.7618,3.7618,3.7628,3.77,3.7721,3.7728,3.7815,3.7754,3.7759,3.7762,3.7764,3.7962,3.7964,0,0,0,0,0,0,3.7454,3.747,3.7588,3.7593,3.7513,3.7575,3.7585,3.7613,3.7665,3.7672,3.763,3.7628,3.7713,3.7722,3.7732,3.7817,3.776,3.7765,3.7768,3.796,3.7963,3.7965,0,0,0,0,0,0,3.7451,3.7465,3.7585,3.7532,3.7547,3.7579,3.7611,3.7615,3.7637,3.7674,3.768,3.7646,3.7712,3.7724,3.7788,3.782,3.7767,3.7772,3.7958,3.7961,3.7964,3.7986,0,0,0,0,0,0,3.7446,3.7463,3.7488,3.7532,3.755,3.7638,3.7613,3.7618,3.7646,3.7644,3.7691,3.7697,3.7712,3.778,3.7793,3.7826,3.7776,3.7955,3.7959,3.7963,3.7982,3.7989,3.7995,0,0,0,0,0,3.744,3.749,3.7489,3.7503,3.7581,3.764,3.765,3.7665,3.7648,3.7674,3.7699,3.7695,3.7814,3.7786,3.7801,3.7836,3.7953,3.7958,3.7963,3.7979,3.7988,3.7995,0,0,0,0,0,0,3.7449,3.7496,3.7495,3.7561,3.7596,3.7639,3.7672,3.7673,3.7714,3.7711,3.7729,3.774,3.7804,3.7826,3.7795,3.7906,3.7882,3.789,3.7889,3.7898,3.7904,3.7898,3.778,0,0,0,0,0,3.7458,3.7501,3.754,3.7595,3.7612,3.764,3.7666,3.7675,3.7712,3.7727,3.7756,3.7794,3.784,3.787,3.7914,3.7985,3.7997,3.8017,3.8023,3.8028,3.8036,3.8079,3.8089,3.7981,3.7981,3.798,0,0,3.7478,3.751,3.7535,3.7597,3.7626,3.7672,3.7652,3.77,3.7735,3.7735,3.7797,3.782,3.7864,3.7932,3.7964,3.7953,3.8068,3.8035,3.8038,3.8043,3.8085,3.8095,3.8104,3.7984,3.7983,3.7983,0,0,3.7539,3.7566,3.7615,3.7645,3.7688,3.7707,3.7719,3.7762,3.7778,3.784,3.7842,3.7885,3.7962,3.7995,3.8021,3.8097,3.8097,3.8111,3.8145,3.8187,3.8196,3.8203,3.8234,3.8244,3.8118,3.8118,3.8118,0,3.7559,3.7626,3.7641,3.7691,3.7719,3.7721,3.7773,3.7801,3.7857,3.7878,3.7864,3.7965,3.7994,3.8072,3.8091,3.8111,3.8128,3.8106,3.8193,3.8201,3.8208,3.8238,3.8248,3.812,3.8119,3.8119,3.8119,0,3.765,3.7698,3.7733,3.7788,3.782,3.787,3.7894,3.7926,3.7933,3.7953,3.8019,3.8054,3.8108,3.8126,3.8133,3.8207,3.8199,3.8189,3.8165,3.822,3.8248,3.8259,3.8122,3.8121,3.8121,3.812,0,0,3.7718,3.7782,3.7795,3.7821,3.7871,3.7908,3.796,3.8012,3.804,3.8079,3.8125,3.8192,3.8185,3.8215,3.8225,3.8262,3.8324,3.8248,3.825,3.8263,3.8412,3.842,3.8433,3.8324,3.8326,3.8328,3.8409,0,3.7786,3.7877,3.7893,3.7974,3.802,3.8024,3.8069,3.8106,3.8127,3.817,3.8194,3.8243,3.8227,3.8246,3.8282,3.8309,3.8355,3.8303,3.8369,3.8372,3.836,3.8447,3.8455,3.853,3.8419,3.8421,3.8423,0,3.7877,3.7919,3.8005,3.8051,3.8071,3.8111,3.8162,3.8202,3.8245,3.8258,3.8294,3.8301,3.8358,3.833,3.841,3.8375,3.8403,3.8421,3.8424,3.8433,3.8401,3.846,3.8554,3.8566,3.8439,3.8438,3.8437,0,3.7921,3.7999,3.8062,3.8084,3.8139,3.8168,3.8192,3.8233,3.8264,3.8309,3.833,3.8381,3.8409,3.8449,3.8471,3.8448,3.8551,3.8524,3.8566,3.8565,3.8588,3.8587,3.869,3.8603,3.8602,3.8602,3.8602,0,3.7997,3.8049,3.8083,3.8121,3.8182,3.82,3.826,3.8284,3.8321,3.8366,3.8372,3.8415,3.844,3.8487,3.8504,3.857,3.8582,3.8596,3.8601,3.8597,3.8596,3.8617,3.8613,3.8605,3.8605,3.8604,3.8603,0,3.8057,3.8081,3.8149,3.8196,3.821,3.8252,3.8294,3.8332,3.8354,3.8411,3.8426,3.846,3.8516,3.8541,3.861,3.8622,3.8698,3.8697,3.8683,3.8685,3.8726,3.8723,3.8849,3.8868,3.8765,3.8766,3.8767,0,3.8104,3.8145,3.8197,3.8228,3.8253,3.8301,3.8334,3.8355,3.8388,3.8442,3.8475,3.8531,3.8577,3.8666,3.8699,3.8752,3.8755,3.8795,3.8763,3.8759,3.8759,3.8757,3.8763,3.8802,3.8803,3.8803,3.8804,0,3.8187,3.8198,3.8243,3.8295,3.8333,3.8374,3.8415,3.844,3.8467,3.8506,3.8563,3.8598,3.8669,3.8726,3.8782,3.8809,3.8813,3.8814,3.8827,3.8824,3.8816,3.8824,3.8702,3.8811,3.881,3.881,3.881,3.8809,3.8244,3.8282,3.8326,3.8377,3.841,3.8449,3.8488,3.8516,3.8563,3.8622,3.8632,3.8694,3.8739,3.8815,3.8844,3.8894,3.8885,3.8903,3.8908,3.8912,3.8916,3.8806,3.8904,3.8904,3.8904,3.8904,3.8904,0,3.833,3.8359,3.8406,3.8463,3.8505,3.8503,3.8549,3.8584,3.8638,3.8679,3.8725,3.8792,3.8848,3.8885,3.8942,3.8975,3.8979,3.899,3.8989,3.8996,3.892,3.8904,3.8987,3.8987,3.8987,3.8987,3.8987,3.8987,3.838,3.8445,3.8461,3.8544,3.8572,3.8632,3.8659,3.8696,3.8729,3.8804,3.885,3.8874,3.8915,3.8975,3.9027,3.9037,3.9059,3.9071,3.9081,3.9009,3.9001,3.8993,3.8978,3.9075,3.9075,3.9153,3.9154,3.9154]},{"header":{"parameterUnit":"m.s-1","parameterCategory":1,"la1":30.2991,"la2":30.254,"lo1":-89.0895,"lo2":-89.0444,"dy":0.0017,"dx":0.0017,"nx":28,"ny":28,"refTime":"2023-08-04T09:00:00:Z","depth":0,"parameterNumber":3,"parameterNumberName":"V-component_of_WINDS"},"data":[0,0,0,0,0,0,0,0,0,0,0,0,0,0,0,0,0,0,0,0,0,0,0,0,0,0,0,0,0,0,0,0,0,0,0,0,0,0,0,0,0,0,0,0,0,0,0,0,0,0,0,0,0,0,0,0,0,0,-1.8012,-1.8012,0,-1.8024,-1.8024,-1.8024,-1.804,-1.8041,-1.8041,-1.8041,-1.8052,-1.8052,-1.8052,0,0,0,0,0,0,0,0,0,0,0,0,0,-1.8001,-1.8001,-1.8012,-1.8012,-1.8012,-1.8024,-1.8024,-1.8024,-1.804,-1.8041,-1.8041,-1.8041,-1.8052,-1.8052,-1.8052,0,0,0,0,0,0,0,0,0,0,0,0,0,-1.8009,-1.8001,-1.8012,-1.8022,-1.8023,-1.8024,-1.8024,-1.8024,-1.804,-1.8041,-1.8041,-1.8041,-1.8052,-1.8052,-1.8052,-1.8044,0,0,-1.8052,-1.8052,0,0,0,0,0,0,0,0,-1.8008,-1.8009,-1.802,-1.8021,-1.8022,-1.8031,-1.8024,-1.8031,-1.804,-1.8033,-1.8041,-1.8042,-1.8044,-1.8045,-1.8046,-1.8044,-1.8045,-1.8052,-1.8052,-1.8052,-1.8052,0,0,0,0,0,0,0,-1.8008,-1.8009,-1.8017,-1.802,-1.8021,-1.8025,-1.8026,-1.8026,-1.8036,-1.8034,-1.8035,-1.8037,-1.8045,-1.8046,-1.8047,-1.8045,-1.8052,-1.8052,-1.8052,-1.8052,-1.8038,-1.8038,0,0,0,0,0,0,-1.8006,-1.8008,-1.8016,-1.8017,-1.8016,-1.8025,-1.8027,-1.8028,-1.8036,-1.8038,-1.8036,-1.8037,-1.8046,-1.8047,-1.8047,-1.8039,-1.8052,-1.8052,-1.8052,-1.8038,-1.8038,-1.8038,0,0,0,0,0,0,-1.8006,-1.8006,-1.8016,-1.8013,-1.8014,-1.8025,-1.8026,-1.8028,-1.8029,-1.8038,-1.804,-1.8036,-1.8046,-1.8047,-1.8045,-1.804,-1.8052,-1.8052,-1.8039,-1.8038,-1.8038,-1.8023,0,0,0,0,0,0,-1.8005,-1.8006,-1.8003,-1.8013,-1.8014,-1.8013,-1.8025,-1.8028,-1.8029,-1.8031,-1.8038,-1.804,-1.8047,-1.8045,-1.8045,-1.804,-1.8052,-1.8039,-1.8039,-1.8038,-1.8024,-1.8022,-1.802,0,0,0,0,0,-1.8005,-1.7998,-1.8003,-1.8004,-1.8011,-1.8013,-1.8014,-1.8023,-1.8029,-1.8026,-1.8032,-1.8039,-1.804,-1.8044,-1.8045,-1.804,-1.804,-1.8039,-1.8038,-1.8024,-1.8022,-1.802,0,0,0,0,0,0,-1.7987,-1.7999,-1.8005,-1.8001,-1.8006,-1.8016,-1.8013,-1.802,-1.8022,-1.8024,-1.8034,-1.8035,-1.8032,-1.8036,-1.804,-1.8033,-1.8041,-1.804,-1.8031,-1.8028,-1.8027,-1.8026,-1.8052,0,0,0,0,0,-1.7983,-1.7984,-1.7994,-1.799,-1.7992,-1.8002,-1.8003,-1.801,-1.8015,-1.8017,-1.8022,-1.8026,-1.8028,-1.8028,-1.803,-1.8024,-1.8026,-1.8021,-1.8019,-1.8018,-1.8017,-1.8015,-1.8013,-1.8035,-1.8035,-1.8035,0,0,-1.7973,-1.7981,-1.798,-1.7986,-1.7991,-1.7992,-1.8003,-1.8003,-1.8004,-1.8016,-1.8015,-1.8019,-1.8025,-1.8021,-1.802,-1.8024,-1.8011,-1.8017,-1.8015,-1.8015,-1.8014,-1.8011,-1.801,-1.8034,-1.8034,-1.8034,0,0,-1.7957,-1.7963,-1.796,-1.7965,-1.7972,-1.7979,-1.7978,-1.7987,-1.7991,-1.799,-1.8,-1.8,-1.8002,-1.8006,-1.8008,-1.7995,-1.8001,-1.7995,-1.7985,-1.7983,-1.7981,-1.7979,-1.7975,-1.7973,-1.7994,-1.7994,-1.7994,0,-1.7945,-1.7947,-1.7957,-1.7957,-1.796,-1.7972,-1.797,-1.7974,-1.798,-1.7982,-1.7987,-1.799,-1.7995,-1.7992,-1.7989,-1.7991,-1.799,-1.7994,-1.798,-1.7979,-1.7978,-1.7974,-1.7972,-1.7993,-1.7993,-1.7993,-1.7993,0,-1.7931,-1.7932,-1.7929,-1.7937,-1.7939,-1.7937,-1.7948,-1.7949,-1.7956,-1.7962,-1.7961,-1.7967,-1.7971,-1.7971,-1.7977,-1.797,-1.7972,-1.7979,-1.7987,-1.7975,-1.7971,-1.7969,-1.7992,-1.7992,-1.7992,-1.7993,0,0,-1.7903,-1.7918,-1.7916,-1.7921,-1.793,-1.7931,-1.793,-1.7935,-1.7935,-1.794,-1.794,-1.7942,-1.7948,-1.7951,-1.7957,-1.7955,-1.7945,-1.7962,-1.7963,-1.7959,-1.7938,-1.7933,-1.7931,-1.795,-1.795,-1.795,-1.7938,0,-1.7888,-1.7889,-1.7899,-1.7896,-1.7897,-1.791,-1.791,-1.7915,-1.7921,-1.7923,-1.793,-1.7931,-1.794,-1.7941,-1.794,-1.7947,-1.7941,-1.7948,-1.795,-1.795,-1.7948,-1.7929,-1.7924,-1.7912,-1.7936,-1.7936,-1.7936,0,-1.7871,-1.7876,-1.7874,-1.7885,-1.7886,-1.7885,-1.789,-1.7892,-1.7899,-1.7903,-1.7907,-1.7915,-1.7915,-1.7923,-1.7924,-1.7928,-1.7929,-1.7933,-1.7933,-1.7933,-1.7942,-1.7929,-1.7909,-1.7907,-1.7934,-1.7934,-1.7934,0,-1.7851,-1.7857,-1.7857,-1.786,-1.7872,-1.7872,-1.7877,-1.7884,-1.7886,-1.7891,-1.7893,-1.7897,-1.7899,-1.7902,-1.7911,-1.7916,-1.791,-1.7919,-1.7914,-1.7914,-1.7912,-1.7912,-1.7891,-1.7913,-1.7913,-1.7913,-1.7913,0,-1.7834,-1.7832,-1.7848,-1.7848,-1.7846,-1.7858,-1.7856,-1.7862,-1.7869,-1.787,-1.7881,-1.7882,-1.7894,-1.7896,-1.7903,-1.7902,-1.7903,-1.7907,-1.7909,-1.7906,-1.7905,-1.7906,-1.7907,-1.7913,-1.7913,-1.7913,-1.7913,0,-1.7811,-1.7822,-1.7822,-1.7835,-1.7838,-1.7836,-1.7846,-1.7846,-1.7854,-1.7855,-1.7856,-1.7867,-1.787,-1.788,-1.7885,-1.789,-1.7887,-1.7891,-1.7885,-1.7886,-1.788,-1.7881,-1.786,-1.7858,-1.7881,-1.788,-1.788,0,-1.7799,-1.7798,-1.7811,-1.7813,-1.7818,-1.782,-1.7823,-1.7835,-1.7838,-1.7846,-1.7845,-1.785,-1.7854,-1.7858,-1.7866,-1.787,-1.7874,-1.7867,-1.7875,-1.7872,-1.7874,-1.7874,-1.7874,-1.7865,-1.7864,-1.7864,-1.7864,0,-1.7777,-1.7783,-1.7787,-1.7793,-1.7797,-1.7802,-1.7808,-1.7809,-1.7822,-1.7824,-1.7828,-1.7831,-1.7838,-1.7841,-1.7847,-1.7852,-1.786,-1.7861,-1.786,-1.7857,-1.7854,-1.7856,-1.788,-1.7862,-1.7862,-1.7862,-1.7862,-1.7862,-1.7759,-1.7759,-1.7769,-1.7773,-1.7779,-1.7785,-1.7786,-1.7794,-1.7798,-1.7804,-1.7811,-1.7814,-1.7822,-1.7831,-1.7835,-1.7837,-1.7842,-1.784,-1.784,-1.7839,-1.7838,-1.7854,-1.7838,-1.7838,-1.7839,-1.7839,-1.7839,0,-1.7738,-1.7745,-1.7749,-1.7758,-1.7761,-1.777,-1.7777,-1.7779,-1.7782,-1.7789,-1.7793,-1.7798,-1.7802,-1.7812,-1.7817,-1.7817,-1.7821,-1.7818,-1.7818,-1.7819,-1.7834,-1.7834,-1.7815,-1.7815,-1.7815,-1.7815,-1.7815,-1.7815,-1.7727,-1.7728,-1.7735,-1.7739,-1.7746,-1.775,-1.7754,-1.7759,-1.7765,-1.777,-1.7774,-1.778,-1.7788,-1.7794,-1.7798,-1.7801,-1.7802,-1.7798,-1.7802,-1.7815,-1.7818,-1.782,-1.782,-1.7798,-1.7798,-1.7787,-1.7787,-1.7787]}]]